Location: Breungeshain
(50.5000°N, 9.2000°E)
Time: 07:29:43
(UTC+00:00)

ISS - Pass Details

Date: 25 May 2018
Orbit: 402 x 407 km, 51.6° (Epoch: 27 May)

Event Time Altitude Azimuth Distance (km) Brightness Sun altitude
Rises 21:35:07 0° 271° (W) 2,320 0.4 -14.8°
Reaches altitude 10° 21:37:12 10° 274° (W) 1,460 -0.6 -14.9°
Maximum altitude 21:40:28 70° 358° (N) 434 -3.6 -15.1°
Drops below altitude 10° 21:43:43 10° 83° (E) 1,459 -1.2 -15.3°
Enters shadow 21:44:37 - 85° (E) 1,825 -0.7 -15.4°
